Year,Month,Day,Hour,Minute,Value (Times are PST for temperature in C)
2012,09,17,00,00,14.30
2012,09,17,00,01,14.30
2012,09,17,00,02,14.30
2012,09,17,00,03,14.30
2012,09,17,00,04,14.40
2012,09,17,00,05,14.40
2012,09,17,00,06,14.40
2012,09,17,00,07,14.40
2012,09,17,00,08,14.40
2012,09,17,00,09,14.40
2012,09,17,00,10,14.40
2012,09,17,00,11,14.30
2012,09,17,00,12,14.30
2012,09,17,00,13,14.30
2012,09,17,00,14,14.30
2012,09,17,00,15,14.30
2012,09,17,00,16,14.30
2012,09,17,00,17,14.30
2012,09,17,00,18,14.20
2012,09,17,00,19,14.20
2012,09,17,00,20,14.20
2012,09,17,00,21,14.20
2012,09,17,00,22,14.20
2012,09,17,00,23,14.20
2012,09,17,00,24,14.20
2012,09,17,00,25,14.20
2012,09,17,00,26,14.20
2012,09,17,00,27,14.20
2012,09,17,00,28,14.20
2012,09,17,00,29,14.20
2012,09,17,00,30,14.20
2012,09,17,00,31,14.20
2012,09,17,00,32,14.10
2012,09,17,00,33,14.10
2012,09,17,00,34,14.10
2012,09,17,00,35,14.10
2012,09,17,00,36,14.00
2012,09,17,00,37,14.00
2012,09,17,00,38,13.90
2012,09,17,00,39,13.90
2012,09,17,00,40,13.90
2012,09,17,00,41,13.90
2012,09,17,00,42,13.90
2012,09,17,00,43,13.80
2012,09,17,00,44,13.80
2012,09,17,00,45,13.80
2012,09,17,00,46,13.70
2012,09,17,00,47,13.70
2012,09,17,00,48,13.70
2012,09,17,00,49,13.70
2012,09,17,00,50,13.60
2012,09,17,00,51,13.60
2012,09,17,00,52,13.60
2012,09,17,00,53,13.60
2012,09,17,00,54,13.50
2012,09,17,00,55,13.50
2012,09,17,00,56,13.50
2012,09,17,00,57,13.40
2012,09,17,00,58,13.40
2012,09,17,00,59,13.40
2012,09,17,01,00,13.40
2012,09,17,01,01,13.40
2012,09,17,01,02,13.30
2012,09,17,01,03,13.30
2012,09,17,01,04,13.30
2012,09,17,01,05,13.30
2012,09,17,01,06,13.30
2012,09,17,01,07,13.30
2012,09,17,01,08,13.30
2012,09,17,01,09,13.30
2012,09,17,01,10,13.30
2012,09,17,01,11,13.30
2012,09,17,01,12,13.20
2012,09,17,01,13,13.20
2012,09,17,01,14,13.20
2012,09,17,01,15,13.20
2012,09,17,01,16,13.20
2012,09,17,01,17,13.10
2012,09,17,01,18,13.10
2012,09,17,01,19,13.10
2012,09,17,01,20,13.10
2012,09,17,01,21,13.10
2012,09,17,01,22,13.10
2012,09,17,01,23,13.10
2012,09,17,01,24,13.10
2012,09,17,01,25,13.10
2012,09,17,01,26,13.10
2012,09,17,01,27,13.10
2012,09,17,01,28,13.10
2012,09,17,01,29,13.00
2012,09,17,01,30,13.00
2012,09,17,01,31,13.00
2012,09,17,01,32,13.00
2012,09,17,01,33,12.90
2012,09,17,01,34,12.90
2012,09,17,01,35,12.90
2012,09,17,01,36,12.90
2012,09,17,01,37,12.90
2012,09,17,01,38,12.90
2012,09,17,01,39,12.90
2012,09,17,01,40,12.90
2012,09,17,01,41,12.90
2012,09,17,01,42,12.90
2012,09,17,01,43,12.90
2012,09,17,01,44,12.90
2012,09,17,01,45,12.90
2012,09,17,01,46,12.90
2012,09,17,01,47,12.90
2012,09,17,01,48,12.80
2012,09,17,01,49,12.80
2012,09,17,01,50,12.80
2012,09,17,01,51,12.80
2012,09,17,01,52,12.70
2012,09,17,01,53,12.70
2012,09,17,01,54,12.60
2012,09,17,01,55,12.60
2012,09,17,01,56,12.60
2012,09,17,01,57,12.50
2012,09,17,01,58,12.50
2012,09,17,01,59,12.40
2012,09,17,02,00,12.40
2012,09,17,02,01,12.40
2012,09,17,02,02,12.30
2012,09,17,02,03,12.30
2012,09,17,02,04,12.20
2012,09,17,02,05,12.20
2012,09,17,02,06,12.20
2012,09,17,02,07,12.10
2012,09,17,02,08,12.10
2012,09,17,02,09,12.10
2012,09,17,02,10,12.10
2012,09,17,02,11,12.00
2012,09,17,02,12,12.00
2012,09,17,02,13,12.00
2012,09,17,02,14,12.00
2012,09,17,02,15,12.00
2012,09,17,02,16,12.00
2012,09,17,02,17,12.00
2012,09,17,02,18,12.00
2012,09,17,02,19,12.00
2012,09,17,02,20,12.00
2012,09,17,02,21,12.00
2012,09,17,02,22,12.00
2012,09,17,02,23,12.00
2012,09,17,02,24,12.00
2012,09,17,02,25,12.00
2012,09,17,02,26,12.00
2012,09,17,02,27,12.00
2012,09,17,02,28,12.00
2012,09,17,02,29,12.00
2012,09,17,02,30,12.00
2012,09,17,02,31,12.00
2012,09,17,02,32,12.00
2012,09,17,02,33,11.90
2012,09,17,02,34,12.00
2012,09,17,02,35,12.00
2012,09,17,02,36,12.00
2012,09,17,02,37,12.00
2012,09,17,02,38,12.10
2012,09,17,02,39,12.10
2012,09,17,02,40,12.10
2012,09,17,02,41,12.10
2012,09,17,02,42,12.10
2012,09,17,02,43,12.10
2012,09,17,02,44,12.10
2012,09,17,02,45,12.10
2012,09,17,02,46,12.10
2012,09,17,02,47,12.10
2012,09,17,02,48,12.10
2012,09,17,02,49,12.10
2012,09,17,02,50,12.10
2012,09,17,02,51,12.10
2012,09,17,02,52,12.00
2012,09,17,02,53,12.00
2012,09,17,02,54,12.00
2012,09,17,02,55,12.00
2012,09,17,02,56,12.00
2012,09,17,02,57,12.00
2012,09,17,02,58,11.90
2012,09,17,02,59,11.90
2012,09,17,03,00,12.00
2012,09,17,03,01,11.90
2012,09,17,03,02,12.00
2012,09,17,03,03,12.00
2012,09,17,03,04,12.00
2012,09,17,03,05,12.00
2012,09,17,03,06,12.00
2012,09,17,03,07,12.00
2012,09,17,03,08,12.00
2012,09,17,03,09,12.00
2012,09,17,03,10,11.90
2012,09,17,03,11,11.90
2012,09,17,03,12,11.90
2012,09,17,03,13,11.90
2012,09,17,03,14,11.90
2012,09,17,03,15,11.90
2012,09,17,03,16,11.90
2012,09,17,03,17,11.90
2012,09,17,03,18,11.80
2012,09,17,03,19,11.80
2012,09,17,03,20,11.80
2012,09,17,03,21,11.80
2012,09,17,03,22,11.70
2012,09,17,03,23,11.70
2012,09,17,03,24,11.70
2012,09,17,03,25,11.70
2012,09,17,03,26,11.70
2012,09,17,03,27,11.70
2012,09,17,03,28,11.70
2012,09,17,03,29,11.60
2012,09,17,03,30,11.60
2012,09,17,03,31,11.60
2012,09,17,03,32,11.60
2012,09,17,03,33,11.60
2012,09,17,03,34,11.60
2012,09,17,03,35,11.50
2012,09,17,03,36,11.50
2012,09,17,03,37,11.50
2012,09,17,03,38,11.50
2012,09,17,03,39,11.50
2012,09,17,03,40,11.40
2012,09,17,03,41,11.40
2012,09,17,03,42,11.40
2012,09,17,03,43,11.40
2012,09,17,03,44,11.40
2012,09,17,03,45,11.40
2012,09,17,03,46,11.30
2012,09,17,03,47,11.30
2012,09,17,03,48,11.30
2012,09,17,03,49,11.30
2012,09,17,03,50,11.30
2012,09,17,03,51,11.20
2012,09,17,03,52,11.20
2012,09,17,03,53,11.20
2012,09,17,03,54,11.20
2012,09,17,03,55,11.20
2012,09,17,03,56,11.20
2012,09,17,03,57,11.20
2012,09,17,03,58,11.20
2012,09,17,03,59,11.20
2012,09,17,04,00,11.20
2012,09,17,04,01,11.20
2012,09,17,04,02,11.20
2012,09,17,04,03,11.10
2012,09,17,04,04,11.10
2012,09,17,04,05,11.10
2012,09,17,04,06,11.10
2012,09,17,04,07,11.10
2012,09,17,04,08,11.10
2012,09,17,04,09,11.00
2012,09,17,04,10,11.00
2012,09,17,04,11,11.00
2012,09,17,04,12,11.00
2012,09,17,04,13,11.00
2012,09,17,04,14,11.00
2012,09,17,04,15,11.00
2012,09,17,04,16,11.00
2012,09,17,04,17,11.00
2012,09,17,04,18,11.00
2012,09,17,04,19,11.00
2012,09,17,04,20,11.00
2012,09,17,04,21,11.00
2012,09,17,04,22,10.90
2012,09,17,04,23,10.90
2012,09,17,04,24,10.90
2012,09,17,04,25,10.90
2012,09,17,04,26,10.90
2012,09,17,04,27,10.90
2012,09,17,04,28,10.90
2012,09,17,04,29,10.90
2012,09,17,04,30,10.90
2012,09,17,04,31,10.90
2012,09,17,04,32,10.90
2012,09,17,04,33,10.90
2012,09,17,04,34,10.90
2012,09,17,04,35,10.90
2012,09,17,04,36,10.90
2012,09,17,04,37,10.90
2012,09,17,04,38,10.90
2012,09,17,04,39,10.90
2012,09,17,04,40,10.90
2012,09,17,04,41,10.80
2012,09,17,04,42,10.80
2012,09,17,04,43,10.80
2012,09,17,04,44,10.80
2012,09,17,04,45,10.80
2012,09,17,04,46,10.80
2012,09,17,04,47,10.80
2012,09,17,04,48,10.70
2012,09,17,04,49,10.70
2012,09,17,04,50,10.70
2012,09,17,04,51,10.70
2012,09,17,04,52,10.70
2012,09,17,04,53,10.70
2012,09,17,04,54,10.70
2012,09,17,04,55,10.70
2012,09,17,04,56,10.70
2012,09,17,04,57,10.70
2012,09,17,04,58,10.70
2012,09,17,04,59,10.60
2012,09,17,05,00,10.60
2012,09,17,05,01,10.70
2012,09,17,05,02,10.60
2012,09,17,05,03,10.60
2012,09,17,05,04,10.60
2012,09,17,05,05,10.60
2012,09,17,05,06,10.60
2012,09,17,05,07,10.60
2012,09,17,05,08,10.60
2012,09,17,05,09,10.60
2012,09,17,05,10,10.60
2012,09,17,05,11,10.60
2012,09,17,05,12,10.60
2012,09,17,05,13,10.60
2012,09,17,05,14,10.60
2012,09,17,05,15,10.60
2012,09,17,05,16,10.60
2012,09,17,05,17,10.50
2012,09,17,05,18,10.50
2012,09,17,05,19,10.50
2012,09,17,05,20,10.50
2012,09,17,05,21,10.40
2012,09,17,05,22,10.40
2012,09,17,05,23,10.40
2012,09,17,05,24,10.40
2012,09,17,05,25,10.40
2012,09,17,05,26,10.40
2012,09,17,05,27,10.40
2012,09,17,05,28,10.40
2012,09,17,05,29,10.40
2012,09,17,05,30,10.40
2012,09,17,05,31,10.40
2012,09,17,05,32,10.30
2012,09,17,05,33,10.30
2012,09,17,05,34,10.30
2012,09,17,05,35,10.30
2012,09,17,05,36,10.30
2012,09,17,05,37,10.30
2012,09,17,05,38,10.30
2012,09,17,05,39,10.30
2012,09,17,05,40,10.30
2012,09,17,05,41,10.30
2012,09,17,05,42,10.30
2012,09,17,05,43,10.30
2012,09,17,05,44,10.30
2012,09,17,05,45,10.30
2012,09,17,05,46,10.30
2012,09,17,05,47,10.30
2012,09,17,05,48,10.30
2012,09,17,05,49,10.30
2012,09,17,05,50,10.30
2012,09,17,05,51,10.30
2012,09,17,05,52,10.30
2012,09,17,05,53,10.30
2012,09,17,05,54,10.30
2012,09,17,05,55,10.30
2012,09,17,05,56,10.30
2012,09,17,05,57,10.30
2012,09,17,05,58,10.20
2012,09,17,05,59,10.20
2012,09,17,06,00,10.20
2012,09,17,06,01,10.20
2012,09,17,06,02,10.20
2012,09,17,06,03,10.20
2012,09,17,06,04,10.20
2012,09,17,06,05,10.20
2012,09,17,06,06,10.20
2012,09,17,06,07,10.20
2012,09,17,06,08,10.20
2012,09,17,06,09,10.20
2012,09,17,06,10,10.20
2012,09,17,06,11,10.20
2012,09,17,06,12,10.20
2012,09,17,06,13,10.20
2012,09,17,06,14,10.20
2012,09,17,06,15,10.20
2012,09,17,06,16,10.20
2012,09,17,06,17,10.20
2012,09,17,06,18,10.20
2012,09,17,06,19,10.20
2012,09,17,06,20,10.20
2012,09,17,06,21,10.20
2012,09,17,06,22,10.20
2012,09,17,06,23,10.20
2012,09,17,06,24,10.20
2012,09,17,06,25,10.20
2012,09,17,06,26,10.20
2012,09,17,06,27,10.20
2012,09,17,06,28,10.20
2012,09,17,06,29,10.20
2012,09,17,06,30,10.20
2012,09,17,06,31,10.20
2012,09,17,06,32,10.20
2012,09,17,06,33,10.20
2012,09,17,06,34,10.20
2012,09,17,06,35,10.20
2012,09,17,06,36,10.10
2012,09,17,06,37,10.10
2012,09,17,06,38,10.20
2012,09,17,06,39,10.20
2012,09,17,06,40,10.20
2012,09,17,06,41,10.20
2012,09,17,06,42,10.20
2012,09,17,06,43,10.20
2012,09,17,06,44,10.20
2012,09,17,06,45,10.20
2012,09,17,06,46,10.20
2012,09,17,06,47,10.20
2012,09,17,06,48,10.20
2012,09,17,06,49,10.20
2012,09,17,06,50,10.10
2012,09,17,06,51,10.10
2012,09,17,06,52,10.10
2012,09,17,06,53,10.10
2012,09,17,06,54,10.10
2012,09,17,06,55,10.10
2012,09,17,06,56,10.10
2012,09,17,06,57,10.10
2012,09,17,06,58,10.00
2012,09,17,06,59,10.00
2012,09,17,07,00,10.00
2012,09,17,07,01,9.90
2012,09,17,07,02,9.90
2012,09,17,07,03,9.90
2012,09,17,07,04,9.90
2012,09,17,07,05,9.90
2012,09,17,07,06,9.90
2012,09,17,07,07,9.90
2012,09,17,07,08,9.90
2012,09,17,07,09,9.80
2012,09,17,07,10,9.90
2012,09,17,07,11,9.80
2012,09,17,07,12,9.80
2012,09,17,07,13,9.80
2012,09,17,07,14,9.80
2012,09,17,07,15,9.80
2012,09,17,07,16,9.80
2012,09,17,07,17,9.80
2012,09,17,07,18,9.80
2012,09,17,07,19,9.80
2012,09,17,07,20,9.80
2012,09,17,07,21,9.80
2012,09,17,07,22,9.80
2012,09,17,07,23,9.80
2012,09,17,07,24,9.80
2012,09,17,07,25,9.80
2012,09,17,07,26,9.80
2012,09,17,07,27,9.80
2012,09,17,07,28,9.80
2012,09,17,07,29,9.80
2012,09,17,07,30,9.80
2012,09,17,07,31,9.70
2012,09,17,07,32,9.70
2012,09,17,07,33,9.70
2012,09,17,07,34,9.70
2012,09,17,07,35,9.70
2012,09,17,07,36,9.70
2012,09,17,07,37,9.70
2012,09,17,07,38,9.80
2012,09,17,07,39,9.80
2012,09,17,07,40,9.80
2012,09,17,07,41,9.80
2012,09,17,07,42,9.80
2012,09,17,07,43,9.80
2012,09,17,07,44,9.90
2012,09,17,07,45,9.90
2012,09,17,07,46,9.90
2012,09,17,07,47,9.90
2012,09,17,07,48,9.90
2012,09,17,07,49,10.00
2012,09,17,07,50,10.00
2012,09,17,07,51,10.00
2012,09,17,07,52,10.00
2012,09,17,07,53,10.00
2012,09,17,07,54,10.10
2012,09,17,07,55,10.10
2012,09,17,07,56,10.10
2012,09,17,07,57,10.10
2012,09,17,07,58,10.10
2012,09,17,07,59,10.20
2012,09,17,08,00,10.20
2012,09,17,08,01,10.30
2012,09,17,08,02,10.30
2012,09,17,08,03,10.30
2012,09,17,08,04,10.40
2012,09,17,08,05,10.40
2012,09,17,08,06,10.40
2012,09,17,08,07,10.50
2012,09,17,08,08,10.50
2012,09,17,08,09,10.50
2012,09,17,08,10,10.50
2012,09,17,08,11,10.50
2012,09,17,08,12,10.60
2012,09,17,08,13,10.60
2012,09,17,08,14,10.60
2012,09,17,08,15,10.60
2012,09,17,08,16,10.70
2012,09,17,08,17,10.70
2012,09,17,08,18,10.80
2012,09,17,08,19,10.80
2012,09,17,08,20,10.80
2012,09,17,08,21,10.80
2012,09,17,08,22,10.80
2012,09,17,08,23,10.90
2012,09,17,08,24,10.90
2012,09,17,08,25,10.90
2012,09,17,08,26,11.00
2012,09,17,08,27,11.00
2012,09,17,08,28,11.10
2012,09,17,08,29,11.10
2012,09,17,08,30,11.20
2012,09,17,08,31,11.20
2012,09,17,08,32,11.30
2012,09,17,08,33,11.30
2012,09,17,08,34,11.30
2012,09,17,08,35,11.40
2012,09,17,08,36,11.40
2012,09,17,08,37,11.50
2012,09,17,08,38,11.50
2012,09,17,08,39,11.60
2012,09,17,08,40,11.60
2012,09,17,08,41,11.60
2012,09,17,08,42,11.60
2012,09,17,08,43,11.70
2012,09,17,08,44,11.70
2012,09,17,08,45,11.70
2012,09,17,08,46,11.80
2012,09,17,08,47,11.80
2012,09,17,08,48,11.90
2012,09,17,08,49,11.90
2012,09,17,08,50,12.00
2012,09,17,08,51,12.00
2012,09,17,08,52,12.10
2012,09,17,08,53,12.10
2012,09,17,08,54,12.20
2012,09,17,08,55,12.30
2012,09,17,08,56,12.40
2012,09,17,08,57,12.40
2012,09,17,08,58,12.50
2012,09,17,08,59,12.60
2012,09,17,09,00,12.70
2012,09,17,09,01,12.80
2012,09,17,09,02,12.80
2012,09,17,09,03,12.90
2012,09,17,09,04,12.90
2012,09,17,09,05,13.00
2012,09,17,09,06,13.10
2012,09,17,09,07,13.20
2012,09,17,09,08,13.20
2012,09,17,09,09,13.30
2012,09,17,09,10,13.30
2012,09,17,09,11,13.40
2012,09,17,09,12,13.40
2012,09,17,09,13,13.50
2012,09,17,09,14,13.60
2012,09,17,09,15,13.70
2012,09,17,09,16,13.70
2012,09,17,09,17,13.80
2012,09,17,09,18,13.90
2012,09,17,09,19,14.00
2012,09,17,09,20,14.00
2012,09,17,09,21,14.10
2012,09,17,09,22,14.20
2012,09,17,09,23,14.30
2012,09,17,09,24,14.30
2012,09,17,09,25,14.40
2012,09,17,09,26,14.50
2012,09,17,09,27,14.60
2012,09,17,09,28,14.60
2012,09,17,09,29,14.70
2012,09,17,09,30,14.80
2012,09,17,09,31,14.90
2012,09,17,09,32,15.00
2012,09,17,09,33,15.00
2012,09,17,09,34,15.00
2012,09,17,09,35,15.00
2012,09,17,09,36,15.10
2012,09,17,09,37,15.20
2012,09,17,09,38,15.20
2012,09,17,09,39,15.20
2012,09,17,09,40,15.20
2012,09,17,09,41,15.20
2012,09,17,09,42,15.20
2012,09,17,09,43,15.30
2012,09,17,09,44,15.30
2012,09,17,09,45,15.30
2012,09,17,09,46,15.30
2012,09,17,09,47,15.40
2012,09,17,09,48,15.40
2012,09,17,09,49,15.50
2012,09,17,09,50,15.50
2012,09,17,09,51,15.60
2012,09,17,09,52,15.60
2012,09,17,09,53,15.70
2012,09,17,09,54,15.70
2012,09,17,09,55,15.80
2012,09,17,09,56,15.90
2012,09,17,09,57,15.90
2012,09,17,09,58,16.00
2012,09,17,09,59,16.00
2012,09,17,10,00,16.10
2012,09,17,10,01,16.20
2012,09,17,10,02,16.20
2012,09,17,10,03,16.30
2012,09,17,10,04,16.40
2012,09,17,10,05,16.50
2012,09,17,10,06,16.60
2012,09,17,10,07,16.70
2012,09,17,10,08,16.80
2012,09,17,10,09,16.90
2012,09,17,10,10,17.00
2012,09,17,10,11,17.10
2012,09,17,10,12,17.20
2012,09,17,10,13,17.40
2012,09,17,10,14,17.50
2012,09,17,10,15,17.70
2012,09,17,10,16,17.80
2012,09,17,10,17,18.00
2012,09,17,10,18,18.20
2012,09,17,10,19,18.30
2012,09,17,10,20,18.50
2012,09,17,10,21,18.60
2012,09,17,10,22,18.80
2012,09,17,10,23,18.90
2012,09,17,10,24,19.00
2012,09,17,10,25,19.20
2012,09,17,10,26,19.30
2012,09,17,10,27,19.40
2012,09,17,10,28,19.50
2012,09,17,10,29,19.60
2012,09,17,10,30,19.60
2012,09,17,10,31,19.60
2012,09,17,10,32,19.70
2012,09,17,10,33,19.80
2012,09,17,10,34,19.80
2012,09,17,10,35,19.90
2012,09,17,10,36,20.00
2012,09,17,10,37,20.00
2012,09,17,10,38,20.00
2012,09,17,10,39,20.10
2012,09,17,10,40,20.10
2012,09,17,10,41,20.20
2012,09,17,10,42,20.30
2012,09,17,10,43,20.30
2012,09,17,10,44,20.40
2012,09,17,10,45,20.50
2012,09,17,10,46,20.60
2012,09,17,10,47,20.70
2012,09,17,10,48,20.80
2012,09,17,10,49,20.90
2012,09,17,10,50,21.00
2012,09,17,10,51,21.00
2012,09,17,10,52,21.10
2012,09,17,10,53,21.20
2012,09,17,10,54,21.30
2012,09,17,10,55,21.40
2012,09,17,10,56,21.40
2012,09,17,10,57,21.40
2012,09,17,10,58,21.40
2012,09,17,10,59,21.50
2012,09,17,11,00,21.50
2012,09,17,11,01,21.50
2012,09,17,11,02,21.50
2012,09,17,11,03,21.60
2012,09,17,11,04,21.60
2012,09,17,11,05,21.70
2012,09,17,11,06,21.70
2012,09,17,11,07,21.80
2012,09,17,11,08,21.80
2012,09,17,11,09,22.00
2012,09,17,11,10,22.10
2012,09,17,11,11,22.20
2012,09,17,11,12,22.30
2012,09,17,11,13,22.40
2012,09,17,11,14,22.50
2012,09,17,11,15,22.60
2012,09,17,11,16,22.70
2012,09,17,11,17,22.80
2012,09,17,11,18,22.90
2012,09,17,11,19,23.00
2012,09,17,11,20,23.10
2012,09,17,11,21,23.20
2012,09,17,11,22,23.20
2012,09,17,11,23,23.20
2012,09,17,11,24,23.20
2012,09,17,11,25,23.30
2012,09,17,11,26,23.30
2012,09,17,11,27,23.30
2012,09,17,11,28,23.40
2012,09,17,11,29,23.50
2012,09,17,11,30,23.60
2012,09,17,11,31,23.60
2012,09,17,11,32,23.70
2012,09,17,11,33,23.80
2012,09,17,11,34,23.90
2012,09,17,11,35,23.90
2012,09,17,11,36,24.00
2012,09,17,11,37,24.10
2012,09,17,11,38,24.10
2012,09,17,11,39,24.10
2012,09,17,11,40,24.10
2012,09,17,11,41,24.10
2012,09,17,11,42,24.10
2012,09,17,11,43,24.20
2012,09,17,11,44,24.20
2012,09,17,11,45,24.30
2012,09,17,11,46,24.40
2012,09,17,11,47,24.50
2012,09,17,11,48,24.50
2012,09,17,11,49,24.60
2012,09,17,11,50,24.70
2012,09,17,11,51,24.80
2012,09,17,11,52,24.90
2012,09,17,11,53,24.90
2012,09,17,11,54,25.00
2012,09,17,11,55,25.10
2012,09,17,11,56,25.20
2012,09,17,11,57,25.20
2012,09,17,11,58,25.20
2012,09,17,11,59,25.20
2012,09,17,12,00,25.20
2012,09,17,12,01,25.20
2012,09,17,12,02,25.30
2012,09,17,12,03,25.40
2012,09,17,12,04,25.40
2012,09,17,12,05,25.40
2012,09,17,12,06,25.50
2012,09,17,12,07,25.50
2012,09,17,12,08,25.60
2012,09,17,12,09,25.60
2012,09,17,12,10,25.60
2012,09,17,12,11,25.60
2012,09,17,12,12,25.60
2012,09,17,12,13,25.50
2012,09,17,12,14,25.50
2012,09,17,12,15,25.50
2012,09,17,12,16,25.50
2012,09,17,12,17,25.50
2012,09,17,12,18,25.50
2012,09,17,12,19,25.60
2012,09,17,12,20,25.60
2012,09,17,12,21,25.70
2012,09,17,12,22,25.80
2012,09,17,12,23,25.90
2012,09,17,12,24,25.90
2012,09,17,12,25,25.90
2012,09,17,12,26,26.00
2012,09,17,12,27,26.10
2012,09,17,12,28,26.20
2012,09,17,12,29,26.20
2012,09,17,12,30,26.30
2012,09,17,12,31,26.30
2012,09,17,12,32,26.40
2012,09,17,12,33,26.40
2012,09,17,12,34,26.50
2012,09,17,12,35,26.50
2012,09,17,12,36,26.60
2012,09,17,12,37,26.70
2012,09,17,12,38,26.70
2012,09,17,12,39,26.70
2012,09,17,12,40,26.80
2012,09,17,12,41,26.80
2012,09,17,12,42,26.90
2012,09,17,12,43,26.90
2012,09,17,12,44,27.00
2012,09,17,12,45,27.00
2012,09,17,12,46,27.10
2012,09,17,12,47,27.10
2012,09,17,12,48,27.10
2012,09,17,12,49,27.20
2012,09,17,12,50,27.20
2012,09,17,12,51,27.20
2012,09,17,12,52,27.30
2012,09,17,12,53,27.30
2012,09,17,12,54,27.30
2012,09,17,12,55,27.40
2012,09,17,12,56,27.40
2012,09,17,12,57,27.50
2012,09,17,12,58,27.50
2012,09,17,12,59,27.50
2012,09,17,13,00,27.60
2012,09,17,13,01,27.60
2012,09,17,13,02,27.60
2012,09,17,13,03,27.60
2012,09,17,13,04,27.60
2012,09,17,13,05,27.70
2012,09,17,13,06,27.70
2012,09,17,13,07,27.80
2012,09,17,13,08,27.80
2012,09,17,13,09,27.80
2012,09,17,13,10,27.90
2012,09,17,13,11,27.90
2012,09,17,13,12,27.90
2012,09,17,13,13,28.00
2012,09,17,13,14,28.00
2012,09,17,13,15,28.10
2012,09,17,13,16,28.10
2012,09,17,13,17,28.10
2012,09,17,13,18,28.10
2012,09,17,13,19,28.10
2012,09,17,13,20,28.10
2012,09,17,13,21,28.10
2012,09,17,13,22,28.10
2012,09,17,13,23,28.00
2012,09,17,13,24,28.00
2012,09,17,13,25,28.00
2012,09,17,13,26,28.00
2012,09,17,13,27,28.00
2012,09,17,13,28,28.00
2012,09,17,13,29,28.10
2012,09,17,13,30,28.10
2012,09,17,13,31,28.10
2012,09,17,13,32,28.20
2012,09,17,13,33,28.20
2012,09,17,13,34,28.20
2012,09,17,13,35,28.20
2012,09,17,13,36,28.20
2012,09,17,13,37,28.30
2012,09,17,13,38,28.30
2012,09,17,13,39,28.30
2012,09,17,13,40,28.30
2012,09,17,13,41,28.30
2012,09,17,13,42,28.30
2012,09,17,13,43,28.30
2012,09,17,13,44,28.30
2012,09,17,13,45,28.30
2012,09,17,13,46,28.30
2012,09,17,13,47,28.30
2012,09,17,13,48,28.40
2012,09,17,13,49,28.40
2012,09,17,13,50,28.40
2012,09,17,13,51,28.40
2012,09,17,13,52,28.40
2012,09,17,13,53,28.40
2012,09,17,13,54,28.40
2012,09,17,13,55,28.40
2012,09,17,13,56,28.40
2012,09,17,13,57,28.40
2012,09,17,13,58,28.40
2012,09,17,13,59,28.40
2012,09,17,14,00,28.40
2012,09,17,14,01,28.40
2012,09,17,14,02,28.40
2012,09,17,14,03,28.40
2012,09,17,14,04,28.40
2012,09,17,14,05,28.40
2012,09,17,14,06,28.50
2012,09,17,14,07,28.50
2012,09,17,14,08,28.50
2012,09,17,14,09,28.60
2012,09,17,14,10,28.60
2012,09,17,14,11,28.60
2012,09,17,14,12,28.70
2012,09,17,14,13,28.70
2012,09,17,14,14,28.70
2012,09,17,14,15,28.70
2012,09,17,14,16,28.80
2012,09,17,14,17,28.80
2012,09,17,14,18,28.80
2012,09,17,14,19,28.80
2012,09,17,14,20,28.70
2012,09,17,14,21,28.60
2012,09,17,14,22,28.60
2012,09,17,14,23,28.70
2012,09,17,14,24,28.70
2012,09,17,14,25,28.80
2012,09,17,14,26,28.90
2012,09,17,14,27,29.00
2012,09,17,14,28,29.10
2012,09,17,14,29,29.20
2012,09,17,14,30,29.30
2012,09,17,14,31,29.40
2012,09,17,14,32,29.50
2012,09,17,14,33,29.50
2012,09,17,14,34,29.60
2012,09,17,14,35,29.60
2012,09,17,14,36,29.60
2012,09,17,14,37,29.60
2012,09,17,14,38,29.60
2012,09,17,14,39,29.60
2012,09,17,14,40,29.60
2012,09,17,14,41,29.50
2012,09,17,14,42,29.50
2012,09,17,14,43,29.50
2012,09,17,14,44,29.60
2012,09,17,14,45,29.60
2012,09,17,14,46,29.70
2012,09,17,14,47,29.80
2012,09,17,14,48,29.90
2012,09,17,14,49,30.00
2012,09,17,14,50,30.00
2012,09,17,14,51,30.10
2012,09,17,14,52,30.20
2012,09,17,14,53,30.20
2012,09,17,14,54,30.20
2012,09,17,14,55,30.30
2012,09,17,14,56,30.30
2012,09,17,14,57,30.30
2012,09,17,14,58,30.30
2012,09,17,14,59,30.30
2012,09,17,15,00,30.30
2012,09,17,15,01,30.40
2012,09,17,15,02,30.40
2012,09,17,15,03,30.30
2012,09,17,15,04,30.30
2012,09,17,15,05,30.20
2012,09,17,15,06,30.20
2012,09,17,15,07,30.20
2012,09,17,15,08,30.10
2012,09,17,15,09,30.10
2012,09,17,15,10,30.20
2012,09,17,15,11,30.20
2012,09,17,15,12,30.20
2012,09,17,15,13,30.20
2012,09,17,15,14,30.30
2012,09,17,15,15,30.30
2012,09,17,15,16,30.30
2012,09,17,15,17,30.20
2012,09,17,15,18,30.20
2012,09,17,15,19,30.20
2012,09,17,15,20,30.20
2012,09,17,15,21,30.20
2012,09,17,15,22,30.10
2012,09,17,15,23,30.10
2012,09,17,15,24,30.10
2012,09,17,15,25,30.10
2012,09,17,15,26,30.00
2012,09,17,15,27,30.00
2012,09,17,15,28,30.00
2012,09,17,15,29,30.00
2012,09,17,15,30,30.00
2012,09,17,15,31,30.00
2012,09,17,15,32,30.00
2012,09,17,15,33,30.10
2012,09,17,15,34,30.10
2012,09,17,15,35,30.10
2012,09,17,15,36,30.10
2012,09,17,15,37,30.10
2012,09,17,15,38,30.10
2012,09,17,15,39,30.10
2012,09,17,15,40,30.10
2012,09,17,15,41,30.00
2012,09,17,15,42,30.00
2012,09,17,15,43,30.00
2012,09,17,15,44,30.00
2012,09,17,15,45,30.10
2012,09,17,15,46,30.10
2012,09,17,15,47,30.00
2012,09,17,15,48,30.00
2012,09,17,15,49,30.00
2012,09,17,15,50,30.00
2012,09,17,15,51,30.10
2012,09,17,15,52,30.10
2012,09,17,15,53,30.10
2012,09,17,15,54,30.20
2012,09,17,15,55,30.20
2012,09,17,15,56,30.30
2012,09,17,15,57,30.40
2012,09,17,15,58,30.50
2012,09,17,15,59,30.50
2012,09,17,16,00,30.60
2012,09,17,16,01,30.60
2012,09,17,16,02,30.60
2012,09,17,16,03,30.60
2012,09,17,16,04,30.70
2012,09,17,16,05,30.70
2012,09,17,16,06,30.80
2012,09,17,16,07,30.80
2012,09,17,16,08,30.80
2012,09,17,16,09,30.80
2012,09,17,16,10,30.80
2012,09,17,16,11,30.80
2012,09,17,16,12,30.70
2012,09,17,16,13,30.70
2012,09,17,16,14,30.70
2012,09,17,16,15,30.70
2012,09,17,16,16,30.80
2012,09,17,16,17,30.80
2012,09,17,16,18,30.80
2012,09,17,16,19,30.80
2012,09,17,16,20,30.80
2012,09,17,16,21,30.80
2012,09,17,16,22,30.80
2012,09,17,16,23,30.80
2012,09,17,16,24,30.80
2012,09,17,16,25,30.70
2012,09,17,16,26,30.70
2012,09,17,16,27,30.70
2012,09,17,16,28,30.70
2012,09,17,16,29,30.60
2012,09,17,16,30,30.60
2012,09,17,16,31,30.50
2012,09,17,16,32,30.40
2012,09,17,16,33,30.40
2012,09,17,16,34,30.40
2012,09,17,16,35,30.40
2012,09,17,16,36,30.50
2012,09,17,16,37,30.50
2012,09,17,16,38,30.60
2012,09,17,16,39,30.60
2012,09,17,16,40,30.60
2012,09,17,16,41,30.60
2012,09,17,16,42,30.60
2012,09,17,16,43,30.60
2012,09,17,16,44,30.60
2012,09,17,16,45,30.60
2012,09,17,16,46,30.60
2012,09,17,16,47,30.60
2012,09,17,16,48,30.60
2012,09,17,16,49,30.60
2012,09,17,16,50,30.50
2012,09,17,16,51,30.50
2012,09,17,16,52,30.40
2012,09,17,16,53,30.40
2012,09,17,16,54,30.40
2012,09,17,16,55,30.40
2012,09,17,16,56,30.40
2012,09,17,16,57,30.40
2012,09,17,16,58,30.30
2012,09,17,16,59,30.30
2012,09,17,17,00,30.30
2012,09,17,17,01,30.30
2012,09,17,17,02,30.30
2012,09,17,17,03,30.30
2012,09,17,17,04,30.30
2012,09,17,17,05,30.30
2012,09,17,17,06,30.30
2012,09,17,17,07,30.30
2012,09,17,17,08,30.30
2012,09,17,17,09,30.30
2012,09,17,17,10,30.20
2012,09,17,17,11,30.10
2012,09,17,17,12,30.10
2012,09,17,17,13,30.00
2012,09,17,17,14,29.90
2012,09,17,17,15,29.80
2012,09,17,17,16,29.70
2012,09,17,17,17,29.70
2012,09,17,17,18,29.70
2012,09,17,17,19,29.70
2012,09,17,17,20,29.60
2012,09,17,17,21,29.60